(158262) = 2001 TN175

Discovered at Socorro on 2001-10-14 by LINEAR.

Orbit

Orbit type: Main Belt

Note: WebGL enabled browser required.

epoch2023-09-13.0
epoch JD2460200.5
perihelion date2020-08-19.60251
perihelion JD2459081.10251
argument of perihelion (°)224.69004
ascending node (°)217.17107
inclination (°)5.75126
eccentricity0.0923984
perihelion distance (AU)2.1506040
Tisserand w.r.t. Jupiter3.5
ΔV w.r.t. Earth (km/sec)9.3
semimajor axis (AU)2.3695463
mean anomaly (°)302.47563
mean daily motion (°/day)0.27021290
aphelion distance (AU)2.588
period (years)3.65
P-vector [x]0.14371213
P-vector [y]0.93368617
P-vector [z]0.32798927
Q-vector [x]-0.98776563
Q-vector [y]0.15561291
Q-vector [z]-0.01018240
absolute magnitude16.8
phase slope0.15
uncertainty0
referenceMPEC 2024-B173
observations used501
oppositions15
arc length (days)8191
first opposition used2001
last opposition used2024
residual rms (arc-secs)0.76
perturbers coarse indicatorM-v
perturbers precise indicator003Ek
first observation date used2001-08-27.0
last observation date used2024-01-30.0
computer nameMPCLINUX
JD of orbit computation2456937.272077
perihelion JD uncertainty (days)1.6835E-04
argument of perihelion uncertainty (°)6.3761E-05
ascending node uncertainty (°)4.3336E-05
inclination uncertainty (°)6.9555E-06
eccentricity uncertainty 3.8548E-08
perihelion distance uncertainty (AU)9.1961E-08
Minimum Orbit Intersection Distances (in AU)
for orbit epoch: 2460200.5, reference: E2024-BH3
Mercury1.84627
Venus1.43297
Earth1.16917
Mars0.60277
Jupiter2.60356
Saturn6.90542
Uranus16.0884
Neptune27.5727

Observations

514 total observations over interval: 2001 08 27.35428 – 2024 01 30.118343
These data are available for download (format description).

Date (UT) J2000 RA J2000 Dec Magn Location Ref
2001 08 27.35428 00 44 22.22 +11 04 05.6 20.5   644 – Palomar Mountain/NEAT MPS 44340
2001 08 27.36564 00 44 22.02 +11 04 04.2 20.8   644 – Palomar Mountain/NEAT MPS 44340
2001 08 27.37644 00 44 21.78 +11 04 02.7 20.4   644 – Palomar Mountain/NEAT MPS 44340
2001 09 20.25689 00 30 32.53 +09 12 37.2 19.6   704 – Lincoln Laboratory ETS, New Mexico MPS 44340
2001 09 20.27200 00 30 31.73 +09 12 29.2 19.8   704 – Lincoln Laboratory ETS, New Mexico MPS 44340
2001 09 20.30229 00 30 30.21 +09 12 18.4 20.5   704 – Lincoln Laboratory ETS, New Mexico MPS 44340
2001 09 20.31643 00 30 29.49 +09 12 12.3 19.6   704 – Lincoln Laboratory ETS, New Mexico MPS 44340
2001 09 23.27133 00 28 03.15 +08 50 23.8 20.0   704 – Lincoln Laboratory ETS, New Mexico MPS 44340
2001 09 23.28591 00 28 02.45 +08 50 18.0 20.2   704 – Lincoln Laboratory ETS, New Mexico MPS 44340
2001 09 23.30100 00 28 01.64 +08 50 10.4 19.9   704 – Lincoln Laboratory ETS, New Mexico MPS 44340
2001 09 23.31515 00 28 00.87 +08 50 02.8 20.0   704 – Lincoln Laboratory ETS, New Mexico MPS 44340
2001 10 14.17564 00 10 33.10 +05 54 06.3 19.6   704 – Lincoln Laboratory ETS, New Mexico MPS 40958
2001 10 14.19136 00 10 32.44 +05 53 59.0 19.6   704 – Lincoln Laboratory ETS, New Mexico MPS 40958
2001 10 14.22285 00 10 30.91 +05 53 42.5 19.7   704 – Lincoln Laboratory ETS, New Mexico MPS 40958
2001 10 14.23862 00 10 30.11 +05 53 33.8 20.3   704 – Lincoln Laboratory ETS, New Mexico MPS 40958
2001 10 21.18276 00 05 48.11 +04 56 16.8 20.0   704 – Lincoln Laboratory ETS, New Mexico MPS 40958
2001 10 21.19913 00 05 47.36 +04 56 09.3 20.1   704 – Lincoln Laboratory ETS, New Mexico MPS 40958
2001 10 21.21550 00 05 46.86 +04 56 02.6 19.8   704 – Lincoln Laboratory ETS, New Mexico MPS 40958
2001 10 21.23189 00 05 46.12 +04 55 54.3 19.8   704 – Lincoln Laboratory ETS, New Mexico MPS 40958
2003 03 07.31945 11 17 28.02 -03 29 01.4 19.7   704 – Lincoln Laboratory ETS, New Mexico MPS 151902
2003 03 07.35471 11 17 26.05 -03 28 46.6 19.6   704 – Lincoln Laboratory ETS, New Mexico MPS 151902
2003 03 07.36910 11 17 25.31 -03 28 39.6 19.4   704 – Lincoln Laboratory ETS, New Mexico MPS 151902
2005 10 01.44243 04 38 43.62 +20 44 11.6 19.6 V G96 – Mt. Lemmon Survey MPS 150637
2005 10 01.44910 04 38 43.83 +20 44 10.5 20.0 V G96 – Mt. Lemmon Survey MPS 150637
2005 10 01.45578 04 38 44.05 +20 44 09.7 19.9 V G96 – Mt. Lemmon Survey MPS 150637
2005 10 28.31595 04 40 39.43 +19 07 44.6 19.0   704 – Lincoln Laboratory ETS, New Mexico MPS 149308
2005 10 28.32843 04 40 39.04 +19 07 40.8 20.3   704 – Lincoln Laboratory ETS, New Mexico MPS 149308
2005 10 28.34049 04 40 38.69 +19 07 37.4 19.7   704 – Lincoln Laboratory ETS, New Mexico MPS 149308
2005 10 28.35546 04 40 38.34 +19 07 33.7 20.1   704 – Lincoln Laboratory ETS, New Mexico MPS 149308
2005 10 29.41663 04 40 11.74 +19 02 20.5 19.4 V G96 – Mt. Lemmon Survey MPS 149308
2005 10 29.43738 04 40 11.17 +19 02 14.2 19.3 V G96 – Mt. Lemmon Survey MPS 149308
2005 11 04.41971 04 36 59.83 +18 31 11.3 19.5 V 691 – Steward Observatory, Kitt Peak-Spacewatch MPS 150637
2005 11 04.43709 04 36 59.08 +18 31 05.4 19.6 V 691 – Steward Observatory, Kitt Peak-Spacewatch MPS 150637
2005 11 04.45460 04 36 58.37 +18 30 59.7 19.6 V 691 – Steward Observatory, Kitt Peak-Spacewatch MPS 150637
2005 11 21.38273 04 22 48.75 +16 52 52.5 20.0 R 644 – Palomar Mountain/NEAT MPS 150637
2005 11 21.41193 04 22 46.96 +16 52 42.2 19.2 R 644 – Palomar Mountain/NEAT MPS 150637
2005 11 21.44647 04 22 44.85 +16 52 29.4 19.3 R 644 – Palomar Mountain/NEAT MPS 150637
2005 11 25.32315 04 18 51.94 +16 29 30.9 18.2 V 703 – Catalina Sky Survey MPS 151902
2005 11 25.33341 04 18 51.26 +16 29 27.2 18.3 V 703 – Catalina Sky Survey MPS 151902
2005 11 25.34369 04 18 50.61 +16 29 23.9 18.3 V 703 – Catalina Sky Survey MPS 151902
2005 11 25.35390 04 18 50.00 +16 29 19.7 18.2 V 703 – Catalina Sky Survey MPS 151902
2005 11 25.43777 04 18 44.71 +16 28 50.1 18.6 V 703 – Catalina Sky Survey MPS 151902
2005 11 25.44757 04 18 44.10 +16 28 46.4 18.6 V 703 – Catalina Sky Survey MPS 151902
2005 11 25.45740 04 18 43.38 +16 28 42.8 18.5 V 703 – Catalina Sky Survey MPS 151902
2005 11 25.46733 04 18 42.84 +16 28 39.2 18.3 V 703 – Catalina Sky Survey MPS 151902
2005 11 30.25824 04 13 51.23 +16 01 04.3 19.5   704 – Lincoln Laboratory ETS, New Mexico MPS 151902
2005 11 30.27261 04 13 50.27 +16 00 58.9 19.5   704 – Lincoln Laboratory ETS, New Mexico MPS 151902
2005 11 30.28537 04 13 49.52 +16 00 54.0 19.6   704 – Lincoln Laboratory ETS, New Mexico MPS 151902
2005 11 30.29803 04 13 48.65 +16 00 49.2 20.1   704 – Lincoln Laboratory ETS, New Mexico MPS 151902
2005 12 07.26036 04 06 58.65 +15 23 44.6 19.4   704 – Lincoln Laboratory ETS, New Mexico MPS 153502
2005 12 07.27393 04 06 57.89 +15 23 40.2 19.4   704 – Lincoln Laboratory ETS, New Mexico MPS 153502
2005 12 07.28775 04 06 57.06 +15 23 36.3 19.5   704 – Lincoln Laboratory ETS, New Mexico MPS 153502
2005 12 07.31329 04 06 55.57 +15 23 27.9 19.9   704 – Lincoln Laboratory ETS, New Mexico MPS 153502
2005 12 08.26058 04 06 02.76 +15 18 49.8 19.1 C 704 – Lincoln Laboratory ETS, New Mexico MPS 294268
2005 12 08.29966 04 06 00.47 +15 18 35.5 19.2 C 704 – Lincoln Laboratory ETS, New Mexico MPS 294268
2005 12 08.31257 04 05 59.74 +15 18 33.3 19.0 C 704 – Lincoln Laboratory ETS, New Mexico MPS 294268
2005 12 24.23433 03 54 15.51 +14 18 51.6 19.6 V 703 – Catalina Sky Survey MPS 156443
2005 12 24.24231 03 54 15.19 +14 18 49.7 19.8 V 703 – Catalina Sky Survey MPS 156443
2005 12 24.25029 03 54 15.01 +14 18 49.1 19.2 V 703 – Catalina Sky Survey MPS 156443
2005 12 24.25827 03 54 14.68 +14 18 46.2 20.2 V 703 – Catalina Sky Survey MPS 156443
2007 03 15.43264 14 37 11.78 -17 15 30.9 20.5 V G96 – Mt. Lemmon Survey MPS 202915
2007 03 15.44008 14 37 11.71 -17 15 29.9 20.6 V G96 – Mt. Lemmon Survey MPS 202915
2007 03 15.44735 14 37 11.60 -17 15 28.8 20.5 V G96 – Mt. Lemmon Survey MPS 202915
2007 03 15.45461 14 37 11.53 -17 15 28.0 20.4 V G96 – Mt. Lemmon Survey MPS 202915
2007 04 18.38821 14 16 41.59 -14 25 30.1 19.7 V G96 – Mt. Lemmon Survey MPS 206813
2007 04 18.39562 14 16 41.19 -14 25 27.0 19.7 V G96 – Mt. Lemmon Survey MPS 206813
2007 04 18.40488 14 16 40.65 -14 25 23.1 19.8 V G96 – Mt. Lemmon Survey MPS 206813
2007 04 18.42183 14 16 39.68 -14 25 15.8 19.9 V G96 – Mt. Lemmon Survey MPS 206813
2007 05 09.28069 13 58 01.59 -11 54 30.2 19.8 V G96 – Mt. Lemmon Survey MPS 208817
2007 05 09.28874 13 58 01.20 -11 54 26.8 19.9 V G96 – Mt. Lemmon Survey MPS 208817
2007 05 09.29679 13 58 00.80 -11 54 23.7 19.8 V G96 – Mt. Lemmon Survey MPS 208817
2007 05 09.30502 13 58 00.40 -11 54 20.0 19.8 V G96 – Mt. Lemmon Survey MPS 208817
2008 07 26.58538 22 07 30.18 -01 57 38.7 20.7 V E12 – Siding Spring Survey MPS 253464
2008 07 26.59359 22 07 29.78 -01 57 39.8 20.2 V E12 – Siding Spring Survey MPS 253464
2008 07 26.60185 22 07 29.56 -01 57 40.0 20.4 V E12 – Siding Spring Survey MPS 253464
2008 07 26.61006 22 07 29.17 -01 57 42.4 20.7 V E12 – Siding Spring Survey MPS 253464
2008 08 09.08648 21 57 22.96 -02 39 07.8 19.6 V J75 – OAM Observatory, La Sagra MPS 254314
2008 08 09.10183 21 57 22.22 -02 39 12.2 19.9 V J75 – OAM Observatory, La Sagra MPS 254314
2008 08 09.11716 21 57 21.33 -02 39 16.4 19.7 V J75 – OAM Observatory, La Sagra MPS 254314
2010 01 07.27766 08 39 26.42 +08 07 42.3 19.9 V 703 – Catalina Sky Survey MPS 310019
2010 01 07.28221 08 39 26.17 +08 07 42.4 19.7 V 703 – Catalina Sky Survey MPS 310019
2010 01 07.28677 08 39 25.99 +08 07 42.2 19.6 V 703 – Catalina Sky Survey MPS 310019
2010 01 07.29130 08 39 25.74 +08 07 42.3 20.7 V 703 – Catalina Sky Survey MPS 310019
2010 01 10.34284 08 36 51.26 +08 10 19.2 20.1   704 – Lincoln Laboratory ETS, New Mexico MPS 311037
2010 01 10.35566 08 36 50.47 +08 10 19.5 19.7   704 – Lincoln Laboratory ETS, New Mexico MPS 311037
2010 01 10.36847 08 36 49.82 +08 10 20.3 20.8   704 – Lincoln Laboratory ETS, New Mexico MPS 311037
2010 01 10.38130 08 36 49.10 +08 10 21.2 20.2   704 – Lincoln Laboratory ETS, New Mexico MPS 311037
2010 01 16.27268 08 31 21.92 +08 20 18.1 19.1   704 – Lincoln Laboratory ETS, New Mexico MPS 311757
2010 01 16.28736 08 31 21.01 +08 20 20.4 19.6   704 – Lincoln Laboratory ETS, New Mexico MPS 311757
